CZ-6A DEB, 54964

Orbit data source: Space-Track

CZ-6A DEB, 54964 is space debris in SSO originally from a launch on Fri, 11 Nov 2022 UTC launched from the Taiyaun Space Center, China (TSC). Debris objects in space refer to the collection of defunct objects orbiting the Earth. Examples of debris include non-operational satellites, rocket bodies, and fragments generated from explosions, collisions, or faulty payload assembly.

Loading next visibility...
Identifier
54964, 2022-151TD
Orbit
SSO
Country
Flag of CNCN / PRC
Related business
Manufacturer
SAST
Mission
Spacecraft
Bus & Motor
Unknown
Mass
Unknown
Launch date (UTC)
2022-11-11 (3 years ago)
Launch vehicle
Unknown
Launch site
Taiyaun Space Center, China (TSC)
Object type
Payload
Rocket body
Debris
Shape & HBR
Unknown shape, 0.1 m
Radar Cross Section
Small (<0.1 m²)

Expand to show TLE details & history
Last TLE update: 8 hours ago

TLE from 8 hours ago
0 CZ-6A DEB
1 54964U 22151TD  26130.52594337 -.00000058  00000-0 -90621-5 0  9997
2 54964  98.8700 127.9980 0061330 110.4412 250.3356 14.07035914179098
Epoch: 2026-05-10T12:37Z
TLE epoch observation values (Epoch: 2026-05-10T12:37:21.507Z)
Latitude
-0.00003°
Longitude
70.33063°
Altitude
887.626 km
Speed
7.401 km/s
True Right ascension
08h 31m 59s
True Declination
0° 00' 00"
Sunlit
Object was in daylight at epoch
Visualization orbit readout
Latitude
Unknown
Longitude
Unknown
Altitude
Unknown
Speed
Unknown
Apparent Right ascension
Unknown
Apparent Declination
Unknown
Sunlit
N/A
Visualization observer readout
Local Sidereal Time
04:34:14
Azimuth
Unknown
Elevation
Unknown
Doppler factor
Unknown
Orbital elements
Apogee altitude
911.149 km
Perigee altitude
822.283 km
Semi-major axis
7,244.853 km
Eccentricity
0.00613
Inclination
98.87°
RAAN
127.998°
Arg. of periapsis
110.4412°
True anomaly
249.67551°
Mean anomaly
250.3356°
Eccentric anomaly
250.00539°
Mean motion
3.51964 °/min
Orbital period
102.28 mins
BSTAR
-0.0000090621
Loading maneuver chart data...
Computing Atmospheric mass density...
Loading historical data...
Loading historical data...
Loading historical data...
Loading historical data...
Loading historical data...
Loading historical data...
Loading historical data...

Documentation

Showing up to 5 results
|